Location: Dehesa de la Cepeda
(40.6574°N, 4.3013°W)
Time: 19:42:25
(UTC+00:00)

Cosmos 2056 Rocket - Pass Details

Date: 05 July 2020
Orbit: 741 x 801 km, 74.0° (Epoch: 05 August)

Event Time Altitude Azimuth Distance (km) Brightness Sun altitude
Rises 22:59:15 0° 346° (NNW) 3,304 8.2 -23.8°
Reaches altitude 10° 23:01:45 10° 352° (N) 2,376 7.1 -24.0°
Maximum altitude 23:06:57 46° 66° (ENE) 1,064 4.2 -24.3°
Enters shadow 23:07:57 42° 96° (E) 1,138 4.1 -24.4°
